{"data":{"norad_id":57071,"intl_designator":"2023-088Z","name":"STARLINK-5834","alt_names":[],"object_type":"PAYLOAD","status":"ACTIVE","operator":null,"country":"US","launch_date":"2023-06-22","launch_site_code":"AFWTR","launch_vehicle":null,"mission":null,"orbit_class":"UNKNOWN","rcs_meters":null,"size_class":null,"mass_kg":null,"dimensions":null,"purposes":["comms"],"wikipedia_slug":null,"has_3d_model":false,"image_url":null,"decayed_at":null,"tle_current":{"epoch":"2026-09-19T19:10:52.825728Z","epoch_age_seconds":181490,"freshness":"STALE","line1":"1 57071U 23088Z   26262.79922252 -.00000060  00000+0  73496-5 0  9997","line2":"2 57071  43.0021  80.1799 0001034 264.7549  95.3185 15.27575786180015","mean_motion":15.27575786,"eccentricity":0.0001034,"inclination_deg":43.0021,"raan_deg":80.1799,"arg_perigee_deg":264.7549,"mean_anomaly_deg":95.3185,"bstar":7.3496e-6,"rev_number":18001,"period_min":94.267008759721,"perigee_km":482.35226635358,"apogee_km":483.7711622477,"semimajor_km":6861.1987143006,"source":"CELESTRAK","updated_at":"2026-09-21T09:00:33.552759Z"}}}